Home > Time Zones > World Clock > Weather > Spain > Palma > Past weeks

Flag for Spain Weather past 2 weeks in Palma, Majorca, Spain

Now
88 °F

Sunny.


Feels Like: 86 °F
Forecast: 67 / 92 °F
Wind: 1 mph from North

Location: Palma De Mallorca / Son San Juan

Current Time: Jun 30, 2015 at 10:26:53 AM

Latest Report: Jun 30, 2015 at 10:00 AM


Visibility: 10 mi

Pressure: 30.07 "Hg

Humidity: 33%

Dew point: 55 °F

Location of PalmaLocation

Historic Weather in Palma — Graph

°F

Palma temperature yesterday

Maximum temperature yesterday: 95 °F (at 12:30 PM)
Minimum temperature yesterday: 64 °F (at 4:30 AM)
Average temperature yesterday: 80 °F

Past Weeks' High & Low Weather Summary

 TemperatureHumidityPressure
High95 °F (Jun 29, 12:30 PM)100% (Jun 21, 5:00 AM)30.18 "Hg (Jun 21, 5:00 AM)
Low57 °F (Jun 17, 5:00 AM)21% (Jun 28, 11:00 AM)29.86 "Hg (Jun 23, 5:30 AM)
Average75 °F65%30.07 "Hg
* Reported Jun 15 9:00 AM — Jun 30 9:00 AM, Palma, Weather by CustomWeather, © 2015

Note: Actual official high and low records may vary slightly from our data, if they occured in-between our weather recording intervals... More about our weather records

Advertising

Palma weather history for previous 24 hours

 ConditionsComfort  
Time TempWeatherWind HumidityBarometerVisibility
9:00 AM
Tue, Jun 30
81 °FSunny.1 mph48%30.07 "Hg10 mi
8:30 AM77 °FSunny.1 mph54%30.07 "Hg10 mi
8:00 AM72 °FSunny.No wind65%30.07 "Hg10 mi
7:30 AM70 °FSunny.No wind69%30.07 "Hg10 mi
7:00 AM66 °FClear.No wind78%30.07 "Hg10 mi
6:30 AM66 °FClear.1 mph78%30.07 "Hg10 mi
5:30 AM66 °FClear.No wind83%30.07 "Hg10 mi
5:00 AM66 °FClear.No wind83%30.07 "Hg10 mi
4:30 AM68 °FClear.No wind78%30.07 "Hg10 mi
4:00 AM68 °FClear.1 mph78%30.07 "Hg10 mi
3:30 AM68 °FClear.No wind78%30.07 "Hg10 mi
3:00 AM68 °FClear.1 mph83%30.07 "Hg10 mi
2:30 AM70 °FClear.No wind78%30.07 "Hg10 mi
2:00 AM70 °FClear.2 mph78%30.09 "Hg10 mi
1:30 AM72 °FClear.2 mph73%30.09 "Hg10 mi
1:00 AM72 °FClear.No wind78%30.09 "Hg10 mi
12:30 AM73 °FClear.1 mph78%30.09 "Hg10 mi
11:00 PM
Mon, Jun 29
77 °FClear.1 mph74%30.09 "Hg10 mi
10:30 PM79 °FClear.2 mph70%30.09 "Hg10 mi
10:00 PM79 °FSunny.2 mph74%30.09 "Hg10 mi
9:30 PM79 °FSunny.5 mph74%30.09 "Hg10 mi
9:00 PM81 °FPassing clouds.3 mph70%30.09 "HgN/A
8:30 PM82 °FSunny.9 mph66%30.09 "Hg10 mi
8:00 PM82 °FSunny.10 mph66%30.09 "Hg10 mi
7:30 PM84 °FSunny.10 mph62%30.09 "Hg10 mi
7:00 PM84 °FSunny.12 mph62%30.09 "Hg10 mi
6:30 PM86 °FSunny.10 mph55%30.09 "Hg10 mi
6:00 PM86 °FPassing clouds.12 mph55%30.09 "HgN/A
5:30 PM86 °FSunny.12 mph55%30.09 "Hg10 mi
5:00 PM86 °FSunny.13 mph52%30.09 "Hg10 mi
4:30 PM86 °FSunny.15 mph52%30.12 "Hg10 mi
4:00 PM88 °FSunny.15 mph49%30.12 "Hg10 mi
3:30 PM88 °FPassing clouds.14 mph49%30.12 "HgN/A
3:00 PM90 °FSunny.14 mph43%30.12 "Hg10 mi
2:30 PM90 °FSunny.15 mph41%30.12 "Hg10 mi
2:00 PM91 °FPassing clouds.14 mph36%30.12 "HgN/A
1:30 PM91 °FSunny.10 mph38%30.12 "Hg10 mi
1:00 PM93 °FPassing clouds.10 mph26%30.12 "HgN/A
12:30 PM95 °FSunny.16 mph25%30.12 "Hg10 mi
12:00 PM93 °FSunny.17 mph28%30.12 "Hg10 mi
11:30 AM93 °FSunny.21 mph30%30.12 "Hg10 mi
11:00 AM91 °FSunny.20 mph30%30.12 "Hg10 mi
10:30 AM90 °FSunny.18 mph33%30.12 "Hg10 mi
10:00 AM90 °FPassing clouds.13 mph31%30.12 "HgN/A
Weather by CustomWeather, © 2015

See weather overviewHow to use our weather pages